Flag for Norway Weather past 2 weeks in Fosnavåg, Norway

Now
38 °F

Chilly.


Feels Like: 34 °F
Forecast: 39 / 45 °F
Wind: 5 mph from Southwest

Location: Alesund / Vigra

Current Time: Mar 4, 2015 at 5:31:07 AM

Latest Report: Mar 4, 2015 at 3:00 AM


Visibility: N/A

Pressure: 29.62 "Hg

Humidity: 74%

Dew point: 30 °F

Location of FosnavågLocation

Historic Weather in Fosnavåg — Graph

°F

Fosnavåg temperature yesterday

Maximum temperature yesterday: 42 °F (at 3:00 PM)
Minimum temperature yesterday: 37 °F (at 2:00 AM)
Average temperature yesterday: 39 °F

Past Weeks' High & Low Weather Summary

 TemperatureHumidityPressure
High52 °F (Mar 1, 1:00 PM)96% (Feb 21, 3:00 PM)30.01 "Hg (Feb 21, 3:00 PM)
Low31 °F (Feb 22, 7:00 PM)38% (Feb 24, 2:00 PM)28.53 "Hg (Mar 1, 5:00 PM)
Average41 °F73%29.27 "Hg
* Reported Feb 17 3:00 AM — Mar 4 3:00 AM, Fosnavåg, Weather by CustomWeather, © 2015

Note: Actual official high and low records may vary slightly from our data, if they occured in-between our weather recording intervals... More about our weather records

Advertising

Fosnavåg weather history for previous 24 hours

 ConditionsComfort  
Time TempWeatherWind HumidityBarometerVisibility
3:00 AM
Wed, Mar 4
38 °FChilly.5 mph74%29.62 "HgN/A
2:00 AM38 °FChilly.5 mph68%29.60 "HgN/A
1:00 AM38 °FChilly.5 mph66%29.58 "HgN/A
12:00 AM38 °FChilly.5 mph68%29.57 "HgN/A
11:00 PM
Tue, Mar 3
37 °FChilly.5 mph74%29.56 "HgN/A
10:00 PM38 °FChilly.6 mph69%29.54 "HgN/A
9:00 PM38 °FChilly.5 mph68%29.50 "HgN/A
8:00 PM39 °FChilly.7 mph68%29.50 "HgN/A
7:00 PM40 °FChilly.5 mph63%29.47 "HgN/A
6:00 PM40 °FChilly.3 mph64%29.47 "HgN/A
5:00 PM40 °FChilly.6 mph65%29.44 "HgN/A
4:00 PM42 °FScattered clouds.5 mph58%29.44 "Hg40 mi
3:00 PM42 °FQuite cool.7 mph57%29.41 "HgN/A
2:00 PM42 °FQuite cool.7 mph57%29.41 "HgN/A
1:00 PM41 °FPartly sunny.7 mph64%29.41 "Hg37 mi
12:00 PM39 °FChilly.7 mph73%29.41 "HgN/A
11:00 AM40 °FChilly.5 mph66%29.38 "HgN/A
10:00 AM39 °FScattered clouds.5 mph75%29.38 "Hg34 mi
9:00 AM37 °FChilly.6 mph82%29.35 "HgN/A
8:00 AM39 °FChilly.5 mph64%29.35 "HgN/A
7:00 AM38 °FOvercast.6 mph71%29.35 "Hg34 mi
6:00 AM38 °FChilly.3 mph70%29.32 "HgN/A
5:00 AM38 °FChilly.6 mph68%29.32 "HgN/A
Weather by CustomWeather, © 2015

See weather overviewHow to use our weather pages